User: anonymous   Login
Location: *
(51.8167°N, 12.5000°E)
Time: 01:00:21
(UTC+00:00)
Language:

CZ-2C R/B - Orbit

View from above orbital plane
View from above orbital plane
View from above satellite
View from above satellite

Ground track
Ground track

The orbit data is extracted from the following two-line orbital elements,

1 37766U 11039B   19317.62823440  .00000079  00000-0  23611-4 0  9996
2 37766  98.4000 160.9389 0045321 343.2570  16.7134 14.66411125443674
Epoch (UTC): 13 November 2019 15:04:39
Eccentricity: 0.0045321
inclination: 98.4000°
perigee height: 640 km
apogee height: 704 km
right ascension of ascending node: 160.9389°
argument of perigee: 343.2570°
revolutions per day: 14.66411125
mean anomaly at epoch: 16.7134°
orbit number at epoch: 44367

The dashed part of the orbit path shows where the satellite is in the earth's shadow,  

DLR